EW0345 Weather Reports


time (UTC)temp
C
wind
direction
speed
KPH
gust
KPH
rain 1hr
cm
rain 24hr
cm
rain mn
cm
humidity
%
barometer
mb
20260507160038 16 0.0 0.0 0.00 0.03 0.03 41 1008.3
20260507154541 15 0.0 0.0 0.00 0.03 0.03 45 1008.3
20260507153041 15 0.0 0.0 0.00 0.03 0.03 48 1008.5
20260507151541 14 0.0 0.0 0.00 0.03 0.03 55 1008.6
20260507150036 13 0.0 0.0 0.00 0.03 0.03 62 1008.7
20260507144542 13 0.0 0.0 0.00 0.03 0.03 61 1008.7
20260507143043 13 0.0 0.0 0.00 0.03 0.03 64 1008.7
20260507141539 12 0.0 0.0 0.00 0.03 0.03 67 1008.7
20260507140053 12 0.0 0.0 0.00 0.03 0.03 66 1008.8
20260507134546 12 0.0 0.0 0.00 0.03 0.03 71 1008.7
20260507133043 11 0.0 0.0 0.00 0.03 0.03 71 1008.9
20260507131542 11 0.0 0.0 0.03 0.03 0.03 76 1009.1
20260507130042 11 0.0 0.0 0.03 0.03 0.03 74 1009.1
20260507124540 10 0.0 0.0 0.03 0.03 0.03 78 1009.0
20260507123039 10 0.0 0.0 0.03 0.03 0.03 79 1009.0
20260507121535 9 0.0 0.0 0.00 0.00 0.00 83 1009.3
20260507120043 8 0.0 0.0 0.00 0.00 0.00 85 1009.4
20260507114535 8 0.0 0.0 0.00 0.00 0.00 85 1009.2
20260507113042 8 0.0 0.0 0.00 0.00 0.00 88 1009.0
20260507111545 8 0.0 0.0 0.00 0.00 0.00 89 1009.2
20260507110039 7 0.0 0.0 0.00 0.00 0.00 89 1009.1
20260507104536 8 0.0 0.0 0.00 0.00 0.00 88 1008.7
20260507103035 8 0.0 0.0 0.00 0.00 0.00 89 1008.8
20260507101558 8 0.0 0.0 0.00 0.00 0.00 88 1008.8
20260507100041 8 0.0 0.0 0.00 0.00 0.00 87 1008.6
20260507094546 8 0.0 0.0 0.00 0.00 0.00 87 1008.5
20260507093046 8 0.0 0.0 0.00 0.00 0.00 87 1008.8
20260507091551 8 0.0 0.0 0.00 0.00 0.00 87 1008.9
20260507090105 8 0.0 0.0 0.00 0.00 0.00 88 1009.1
20260507084541 8 0.0 0.0 0.00 0.00 0.00 88 1008.4
20260507083041 8 0.0 0.0 0.00 0.00 0.00 88 1008.2
20260507081550 8 0.0 0.0 0.00 0.00 0.00 89 1008.2
20260507080043 8 0.0 0.0 0.00 0.00 0.00 90 1008.0
20260507074544 8 0.0 0.0 0.00 0.00 0.00 91 1008.6
20260507073054 8 0.0 0.0 0.00 0.00 0.00 91 1008.0
20260507071539 8 0.0 0.0 0.00 0.00 0.00 91 1008.0
20260507070121 8 0.0 0.0 0.00 0.00 0.00 92 1007.9
20260507064547 8 0.0 0.0 0.00 0.00 0.00 92 1007.9
20260507063041 8 0.0 0.0 0.00 0.00 0.00 93 1008.1
20260507061542 8 0.0 0.0 0.00 0.00 0.00 93 1008.2
20260507060040 9 0.0 0.0 0.00 0.00 0.00 93 1008.0
20260507054543 9 0.0 0.0 0.00 0.00 0.00 93 1008.1
20260507053044 9 0.0 0.0 0.00 0.00 0.00 93 1008.0
20260507051541 9 0.0 0.0 0.00 0.00 0.00 93 1008.1
20260507050043 10 0.0 0.0 0.00 0.00 0.00 94 1007.9
20260507044546 10 0.0 0.0 0.00 0.03 0.00 94 1007.9
20260507043041 10 0.0 0.0 0.00 0.03 0.00 95 1008.0
20260507041539 10 0.0 0.0 0.00 0.03 0.00 95 1008.1
20260507040049 10 0.0 0.0 0.00 0.03 0.00 94 1008.0
20260507034546 10 0.0 0.0 0.00 0.03 0.03 94 1007.9
20260507033041 10 0.0 0.0 0.00 0.03 0.03 93 1007.8
20260507031542 11 0.0 0.0 0.00 0.03 0.03 92 1007.8
20260507030042 11 0.0 0.0 0.00 0.03 0.03 92 1007.7
20260507024539 12 0.0 0.0 0.00 0.03 0.03 93 1007.5
20260507023043 13 0.0 0.0 0.00 0.03 0.03 94 1007.3
20260507021534 13 0.0 0.0 0.00 0.03 0.03 94 1007.0
20260507020050 14 0.0 0.0 0.00 0.03 0.03 94 1006.7
20260507014553 15 0.0 0.0 0.00 0.03 0.03 95 1006.3
20260507013037 15 0.0 0.0 0.00 0.03 0.03 95 1006.1
20260507011539 15 0.0 0.0 0.00 0.03 0.03 95 1006.1
20260507010036 15 0.0 0.0 0.00 0.03 0.03 95 1006.1
20260507004544 15 0.0 0.0 0.00 0.03 0.03 95 1006.0
20260507003042 15 0.0 0.0 0.00 0.03 0.03 95 1005.9
20260507001536 15 0.0 0.0 0.00 0.03 0.03 95 1005.9
20260507000046 15 0.0 0.0 0.00 0.03 0.03 95 1005.8
20260506234543 15 0.0 0.0 0.00 0.03 0.03 95 1005.6
20260506233041 15 0.0 0.0 0.00 0.03 0.03 95 1005.6
20260506231542 15 0.0 0.0 0.00 0.03 0.03 95 1005.7
20260506230040 15 0.0 0.0 0.00 0.03 0.03 95 1005.8
20260506224538 15 0.0 0.0 0.00 0.03 0.03 95 1005.9
20260506223046 15 0.0 0.0 0.00 0.03 0.03 94 1006.0
20260506221544 15 0.0 0.0 0.00 0.03 0.03 94 1006.1
20260506220043 15 0.0 0.0 0.00 0.03 0.03 94 1006.2
20260506214540 15 0.0 0.0 0.00 0.03 0.03 94 1006.1
20260506213039 16 0.0 0.0 0.00 0.03 0.03 94 1006.2
20260506211536 16 0.0 0.0 0.00 0.03 0.03 94 1006.2
20260506210049 16 0.0 0.0 0.00 0.03 0.03 94 1006.2
20260506204542 16 0.0 0.0 0.00 0.03 0.03 94 1006.4
20260506203048 16 0.0 0.0 0.00 0.03 0.03 93 1006.5
20260506201545 16 0.0 0.0 0.00 0.03 0.03 93 1006.7
20260506200038 16 0.0 0.0 0.00 0.03 0.03 93 1006.8
20260506194540 16 0.0 0.0 0.00 0.03 0.03 93 1007.0
20260506193045 16 0.0 0.0 0.00 0.03 0.03 92 1007.0
20260506191543 17 0.0 0.0 0.00 0.03 0.03 92 1006.7
20260506190041 17 0.0 0.0 0.00 0.03 0.03 91 1006.9
20260506184548 17 0.0 0.0 0.00 0.03 0.03 91 1007.4
20260506183046 17 0.0 0.0 0.00 0.03 0.03 89 1007.7
20260506181542 17 0.0 0.0 0.00 0.03 0.03 86 1007.7
20260506180043 18 0.0 0.0 0.00 0.03 0.03 81 1008.1
20260506174541 20 0.0 0.0 0.00 0.03 0.03 74 1008.2
20260506173051 20 0.0 0.0 0.00 0.03 0.03 66 1007.7
20260506171549 21 0.0 0.0 0.00 0.03 0.03 63 1007.6
20260506170034 21 0.0 0.0 0.00 0.03 0.03 66 1007.6
20260506164543 21 0.0 0.0 0.00 0.03 0.03 65 1007.6
20260506163058 21 0.0 0.0 0.00 0.03 0.03 66 1007.8
20260506161544 21 0.0 0.0 0.00 0.03 0.03 67 1007.9